sat.trackr.live / text

‹ back to catalog

ICEYE-X59

NORAD 66752 · 2025-276CQ

PAYLOAD ACTIVE UNKNOWN

§ Identity

Operator
Country
GREC
Launch date
2025-11-28
Launch site
AFWTR
Launch vehicle
Mass (kg)
RCS (m²)

External: N2YO · Heavens-Above · Gunter

§ Orbital elements

Epoch: 2026-09-20T22:35:10.007520Z

Period
95.91 min
Inclination
97.4530°
Eccentricity
0.0001300
Mean motion
15.01474076 rev/d
Perigee alt
561.4 km
Apogee alt
563.3 km
Semi-major
6,940.5 km
B*
2.1678e-4
RAAN
331.2341°
Arg perigee
58.3036°
Mean anomaly
301.8315°
Rev number
4,463

§ Raw data

ICEYE-X591 66752U 25276CQ  26263.94108805  .00002745  00000+0  21678-3 0  99962 66752  97.4530 331.2341 0001300  58.3036 301.8315 15.01474076 44635

JSON: /api/v1/satellites/66752 · /tle

For live sub-satellite position, see the globe view (requires WebGL).

§ Visibility from observer

Set your observer location to see the next 7 days of passes ≥ 10°. The values pass through the URL so the page stays shareable.

No JS? Fill the form by hand. The geolocation button needs JavaScript.